| time (UTC) | temp C | wind direction | speed KPH | gust KPH | rain 1hr cm | rain 24hr cm | rain mn cm | humidity % | barometer mb |
| 20260506180432 | 15 | 271 | 3.2 | 4.8 | 0.00 | 1.09 | 1.09 | 52 | 1013.3 |
| 20260506175929 | 13 | 303 | 1.6 | 1.6 | 0.00 | 1.09 | 1.09 | 57 | 1013.0 |
| 20260506175426 | 13 | 21 | 1.6 | 1.6 | 0.00 | 1.09 | 1.09 | 54 | 1013.6 |
| 20260506174922 | 13 | 35 | 1.6 | 3.2 | 0.00 | 1.09 | 1.09 | 59 | 1013.0 |
| 20260506174420 | 13 | 301 | 3.2 | 4.8 | 0.00 | 1.09 | 1.09 | 56 | 1013.2 |
| 20260506173917 | 13 | 25 | 3.2 | 3.2 | 0.00 | 1.09 | 1.09 | 54 | 1013.0 |
| 20260506173414 | 13 | 306 | 1.6 | 1.6 | 0.00 | 1.09 | 1.09 | 55 | 1013.0 |
| 20260506172911 | 13 | 27 | 0.0 | 0.0 | 0.00 | 1.09 | 1.09 | 56 | 1013.2 |
| 20260506172407 | 12 | 301 | 3.2 | 3.2 | 0.00 | 1.09 | 1.09 | 54 | 1013.0 |
| 20260506171905 | 13 | 333 | 1.6 | 4.8 | 0.00 | 1.09 | 1.09 | 56 | 1013.0 |
| 20260506171402 | 13 | 26 | 1.6 | 3.2 | 0.00 | 1.09 | 1.09 | 57 | 1012.9 |
| 20260506170900 | 12 | 278 | 0.0 | 1.6 | 0.00 | 1.09 | 1.09 | 64 | 1013.0 |
| 20260506170355 | 12 | 288 | 1.6 | 1.6 | 0.00 | 1.09 | 1.09 | 63 | 1012.9 |
| 20260506165849 | 12 | 60 | 1.6 | 1.6 | 0.00 | 1.09 | 1.09 | 64 | 1013.2 |
| 20260506165346 | 12 | 11 | 3.2 | 3.2 | 0.00 | 1.09 | 1.09 | 59 | 1012.9 |
| 20260506164843 | 12 | 306 | 3.2 | 3.2 | 0.00 | 1.09 | 1.09 | 63 | 1013.0 |
| 20260506164339 | 13 | 298 | 1.6 | 3.2 | 0.00 | 1.09 | 1.09 | 62 | 1013.2 |
| 20260506163837 | 12 | 298 | 1.6 | 3.2 | 0.00 | 1.09 | 1.09 | 64 | 1013.3 |
| 20260506163331 | 12 | 305 | 0.0 | 0.0 | 0.00 | 1.09 | 1.09 | 63 | 1013.2 |
| 20260506162827 | 12 | 345 | 1.6 | 3.2 | 0.00 | 1.09 | 1.09 | 64 | 1013.0 |
| 20260506162325 | 12 | 306 | 1.6 | 3.2 | 0.00 | 1.09 | 1.09 | 67 | 1013.2 |
| 20260506161817 | 12 | 28 | 1.6 | 1.6 | 0.00 | 1.09 | 1.09 | 67 | 1013.0 |
| 20260506161314 | 12 | 8 | 0.0 | 1.6 | 0.00 | 1.09 | 1.09 | 65 | 1013.0 |
| 20260506160812 | 12 | 329 | 3.2 | 3.2 | 0.00 | 1.09 | 1.09 | 73 | 1012.8 |
| 20260506160308 | 12 | 222 | 3.2 | 3.2 | 0.00 | 1.09 | 1.09 | 64 | 1012.7 |
| 20260506155807 | 12 | 287 | 4.8 | 6.4 | 0.00 | 1.09 | 1.09 | 69 | 1012.8 |
| 20260506155306 | 12 | 319 | 0.0 | 0.0 | 0.00 | 1.09 | 1.09 | 73 | 1012.6 |
| 20260506153415 | 12 | 342 | 1.6 | 3.2 | 0.00 | 1.09 | 1.09 | 71 | 1012.7 |
| 20260506152913 | 11 | 27 | 1.6 | 3.2 | 0.00 | 1.09 | 1.09 | 71 | 1012.5 |
| 20260506152410 | 11 | 299 | 3.2 | 4.8 | 0.00 | 1.09 | 1.09 | 75 | 1012.7 |
| 20260506151908 | 11 | 347 | 0.0 | 1.6 | 0.00 | 1.09 | 1.09 | 73 | 1012.3 |
| 20260506151404 | 11 | 322 | 1.6 | 1.6 | 0.00 | 1.09 | 1.09 | 72 | 1012.2 |
| 20260506150902 | 11 | 307 | 0.0 | 1.6 | 0.00 | 1.09 | 1.09 | 74 | 1012.2 |
| 20260506150358 | 11 | 303 | 1.6 | 3.2 | 0.00 | 1.09 | 1.09 | 73 | 1012.1 |
| 20260506145855 | 11 | 318 | 0.0 | 0.0 | 0.00 | 1.09 | 1.09 | 76 | 1012.1 |
| 20260506145351 | 10 | 342 | 0.0 | 0.0 | 0.00 | 1.09 | 1.09 | 77 | 1012.0 |
| 20260506144849 | 10 | 311 | 1.6 | 1.6 | 0.00 | 1.09 | 1.09 | 76 | 1012.0 |
| 20260506144345 | 10 | 303 | 0.0 | 1.6 | 0.00 | 1.09 | 1.09 | 80 | 1012.0 |
| 20260506143844 | 10 | 313 | 0.0 | 0.0 | 0.00 | 1.09 | 1.09 | 80 | 1011.9 |
| 20260506143341 | 10 | 355 | 0.0 | 1.6 | 0.00 | 1.09 | 1.09 | 82 | 1011.9 |
| 20260506142839 | 10 | 285 | 1.6 | 1.6 | 0.00 | 1.09 | 1.09 | 81 | 1012.2 |
| 20260506142336 | 10 | 338 | 0.0 | 0.0 | 0.00 | 1.09 | 1.09 | 82 | 1011.9 |
| 20260506141835 | 9 | 295 | 1.6 | 1.6 | 0.00 | 1.09 | 1.09 | 82 | 1011.8 |
| 20260506141332 | 9 | 294 | 3.2 | 3.2 | 0.00 | 1.09 | 1.09 | 83 | 1011.6 |
| 20260506140830 | 9 | 16 | 0.0 | 0.0 | 0.00 | 1.09 | 1.09 | 85 | 1011.7 |
| 20260506140327 | 8 | 214 | 0.0 | 3.2 | 0.00 | 1.09 | 1.09 | 85 | 1011.8 |
| 20260506135824 | 8 | 318 | 1.6 | 1.6 | 0.00 | 1.09 | 1.09 | 88 | 1011.8 |
| 20260506135320 | 8 | 353 | 0.0 | 1.6 | 0.00 | 1.09 | 1.09 | 89 | 1012.0 |
| 20260506134817 | 8 | 303 | 1.6 | 1.6 | 0.00 | 1.09 | 1.09 | 90 | 1011.9 |
| 20260506134313 | 8 | 343 | 0.0 | 1.6 | 0.00 | 1.09 | 1.09 | 91 | 1011.8 |
| 20260506133810 | 7 | 319 | 0.0 | 0.0 | 0.00 | 1.09 | 1.09 | 93 | 1011.7 |
| 20260506133307 | 7 | 332 | 0.0 | 1.6 | 0.00 | 1.09 | 1.09 | 93 | 1011.6 |
| 20260506132804 | 7 | 325 | 0.0 | 1.6 | 0.00 | 1.09 | 1.09 | 95 | 1011.7 |
| 20260506132301 | 7 | 301 | 0.0 | 0.0 | 0.00 | 1.09 | 1.09 | 96 | 1011.8 |
| 20260506131759 | 7 | 313 | 0.0 | 1.6 | 0.00 | 1.09 | 1.09 | 96 | 1011.5 |
| 20260506131255 | 7 | 290 | 1.6 | 1.6 | 0.00 | 1.09 | 1.09 | 97 | 1011.2 |
| 20260506130752 | 7 | 315 | 0.0 | 1.6 | 0.00 | 1.09 | 1.09 | 98 | 1011.2 |
| 20260506130249 | 7 | 312 | 0.0 | 1.6 | 0.00 | 1.09 | 1.09 | 98 | 1011.1 |
| 20260506125747 | 7 | 331 | 0.0 | 0.0 | 0.00 | 1.09 | 1.09 | 99 | 1011.2 |
| 20260506125244 | 7 | 311 | 0.0 | 0.0 | 0.00 | 1.09 | 1.09 | 99 | 1011.5 |
| 20260506124743 | 7 | 305 | 1.6 | 1.6 | 0.00 | 1.09 | 1.09 | 99 | 1011.3 |
| 20260506124240 | 7 | 307 | 0.0 | 0.0 | 0.00 | 1.09 | 1.09 | 99 | 1010.9 |
| 20260506123737 | 7 | 307 | 0.0 | 0.0 | 0.00 | 1.09 | 1.09 | 99 | 1010.8 |
| 20260506123236 | 7 | 5 | 0.0 | 0.0 | 0.00 | 1.09 | 1.09 | 99 | 1010.7 |
| 20260506122732 | 7 | 311 | 1.6 | 1.6 | 0.00 | 1.09 | 1.09 | 99 | 1010.8 |
| 20260506122229 | 7 | 323 | 0.0 | 0.0 | 0.00 | 1.09 | 1.09 | 99 | 1010.5 |
| 20260506121728 | 7 | 329 | 0.0 | 0.0 | 0.00 | 1.09 | 1.09 | 99 | 1010.6 |
| 20260506121224 | 7 | 315 | 0.0 | 0.0 | 0.00 | 1.09 | 1.09 | 99 | 1010.5 |
| 20260506120722 | 7 | 337 | 0.0 | 0.0 | 0.00 | 1.09 | 1.09 | 99 | 1010.5 |
| 20260506120219 | 7 | 339 | 0.0 | 0.0 | 0.00 | 1.09 | 1.09 | 99 | 1010.3 |
| 20260506115717 | 7 | 339 | 0.0 | 1.6 | 0.00 | 1.09 | 1.09 | 99 | 1010.4 |
| 20260506115215 | 7 | 301 | 0.0 | 0.0 | 0.00 | 1.09 | 1.09 | 99 | 1010.4 |
| 20260506114712 | 7 | 301 | 0.0 | 0.0 | 0.00 | 1.09 | 1.09 | 99 | 1010.4 |
| 20260506114210 | 6 | 301 | 0.0 | 0.0 | 0.00 | 1.09 | 1.09 | 99 | 1010.5 |
| 20260506113708 | 6 | 301 | 0.0 | 0.0 | 0.00 | 1.09 | 1.09 | 99 | 1010.3 |
| 20260506113205 | 6 | 301 | 0.0 | 0.0 | 0.00 | 1.09 | 1.09 | 99 | 1010.5 |
| 20260506112701 | 6 | 301 | 0.0 | 0.0 | 0.00 | 1.09 | 1.09 | 99 | 1010.8 |
| 20260506112159 | 6 | 357 | 0.0 | 0.0 | 0.00 | 1.09 | 1.09 | 99 | 1010.3 |
| 20260506111656 | 6 | 356 | 0.0 | 0.0 | 0.00 | 1.09 | 1.09 | 99 | 1010.2 |
| 20260506111154 | 6 | 356 | 0.0 | 0.0 | 0.00 | 1.09 | 1.09 | 99 | 1009.9 |
| 20260506110651 | 6 | 353 | 0.0 | 0.0 | 0.00 | 1.09 | 1.09 | 99 | 1009.4 |
| 20260506110148 | 6 | 320 | 0.0 | 0.0 | 0.00 | 1.09 | 1.09 | 99 | 1009.8 |
| 20260506105645 | 6 | 322 | 0.0 | 0.0 | 0.00 | 1.09 | 1.09 | 99 | 1010.1 |
| 20260506105142 | 6 | 318 | 1.6 | 1.6 | 0.00 | 1.09 | 1.09 | 99 | 1009.9 |
| 20260506104640 | 6 | 332 | 0.0 | 0.0 | 0.00 | 1.09 | 1.09 | 99 | 1009.9 |
| 20260506104137 | 6 | 320 | 1.6 | 1.6 | 0.00 | 1.09 | 1.09 | 99 | 1009.6 |
| 20260506103634 | 7 | 350 | 0.0 | 0.0 | 0.00 | 1.09 | 1.09 | 99 | 1009.7 |
| 20260506103131 | 7 | 332 | 0.0 | 0.0 | 0.00 | 1.09 | 1.09 | 99 | 1009.4 |
| 20260506102629 | 7 | 322 | 0.0 | 0.0 | 0.00 | 1.09 | 1.09 | 99 | 1009.6 |
| 20260506102126 | 6 | 327 | 0.0 | 0.0 | 0.00 | 1.09 | 1.09 | 99 | 1008.8 |
| 20260506101623 | 6 | 333 | 0.0 | 0.0 | 0.00 | 1.09 | 1.09 | 99 | 1008.9 |
| 20260506101120 | 6 | 334 | 0.0 | 1.6 | 0.00 | 1.09 | 1.09 | 99 | 1008.8 |
| 20260506100618 | 6 | 358 | 0.0 | 0.0 | 0.00 | 1.09 | 1.09 | 99 | 1008.6 |
| 20260506100116 | 6 | 357 | 0.0 | 0.0 | 0.00 | 1.09 | 1.09 | 99 | 1008.6 |
| 20260506095615 | 6 | 320 | 0.0 | 0.0 | 0.00 | 1.09 | 1.09 | 99 | 1008.4 |
| 20260506095111 | 6 | 354 | 0.0 | 0.0 | 0.00 | 1.09 | 1.09 | 99 | 1008.2 |
| 20260506094608 | 6 | 320 | 3.2 | 3.2 | 0.00 | 1.09 | 1.09 | 99 | 1008.5 |
| 20260506094106 | 6 | 346 | 0.0 | 1.6 | 0.13 | 1.09 | 1.09 | 99 | 1008.4 |
| 20260506093604 | 7 | 331 | 0.0 | 0.0 | 0.13 | 1.09 | 1.09 | 99 | 1008.8 |
| 20260506093101 | 7 | 328 | 0.0 | 0.0 | 0.00 | 1.07 | 1.07 | 99 | 1009.0 |
| 20260506092559 | 7 | 0 | 0.0 | 1.6 | 0.00 | 1.07 | 1.07 | 99 | 1009.3 |
| 20260506092055 | 7 | 339 | 0.0 | 0.0 | 0.18 | 1.07 | 1.07 | 99 | 1009.5 |
| 20260506091554 | 7 | 2 | 0.0 | 1.6 | 0.18 | 1.07 | 1.07 | 99 | 1009.4 |
| 20260506091051 | 7 | 358 | 0.0 | 1.6 | 0.00 | 1.04 | 1.04 | 99 | 1009.5 |
| 20260506090549 | 7 | 319 | 0.0 | 0.0 | 0.13 | 1.04 | 1.04 | 99 | 1009.4 |
| 20260506090045 | 7 | 321 | 0.0 | 1.6 | 0.30 | 1.04 | 1.04 | 99 | 1009.4 |
| 20260506085542 | 7 | 345 | 0.0 | 0.0 | 0.18 | 1.02 | 1.02 | 99 | 1009.4 |
| 20260506085038 | 7 | 346 | 0.0 | 0.0 | 0.00 | 0.99 | 0.99 | 99 | 1009.2 |
| 20260506084535 | 7 | 344 | 0.0 | 0.0 | 0.00 | 0.99 | 0.99 | 99 | 1009.3 |
| 20260506084031 | 7 | 338 | 0.0 | 0.0 | 0.00 | 0.99 | 0.99 | 99 | 1009.1 |
| 20260506083529 | 7 | 342 | 0.0 | 0.0 | 0.00 | 0.99 | 0.99 | 99 | 1009.1 |
| 20260506083026 | 7 | 337 | 0.0 | 0.0 | 0.00 | 0.99 | 0.99 | 99 | 1009.2 |
| 20260506082523 | 7 | 283 | 0.0 | 0.0 | 0.13 | 0.99 | 0.99 | 99 | 1009.0 |
| 20260506082018 | 7 | 320 | 0.0 | 0.0 | 0.13 | 0.99 | 0.99 | 99 | 1009.2 |
| 20260506081517 | 7 | 355 | 1.6 | 1.6 | 0.00 | 0.97 | 0.97 | 99 | 1009.0 |
| 20260506081014 | 7 | 339 | 0.0 | 0.0 | 0.00 | 0.97 | 0.97 | 99 | 1009.2 |
| 20260506080511 | 7 | 338 | 0.0 | 0.0 | 0.18 | 0.97 | 0.97 | 99 | 1009.3 |
| 20260506073455 | 6 | 319 | 1.6 | 3.2 | 0.48 | 0.84 | 0.84 | 99 | 1009.4 |
| 20260506072952 | 6 | 25 | 3.2 | 3.2 | 0.30 | 0.81 | 0.81 | 99 | 1009.3 |
| 20260506072449 | 6 | 327 | 3.2 | 4.8 | 0.13 | 0.76 | 0.76 | 99 | 1009.2 |
| 20260506071947 | 6 | 15 | 1.6 | 1.6 | 0.30 | 0.76 | 0.76 | 99 | 1009.0 |
| 20260506071445 | 6 | 5 | 0.0 | 0.0 | 0.30 | 0.74 | 0.74 | 99 | 1009.0 |
| 20260506070941 | 6 | 334 | 0.0 | 1.6 | 0.30 | 0.71 | 0.71 | 99 | 1009.0 |
| 20260506070438 | 7 | 335 | 1.6 | 3.2 | 0.30 | 0.69 | 0.69 | 99 | 1009.0 |
| 20260506062416 | 7 | 1 | 0.0 | 0.0 | 0.13 | 0.48 | 0.48 | 99 | 1009.0 |
| 20260506061911 | 7 | 341 | 1.6 | 1.6 | 0.18 | 0.46 | 0.46 | 99 | 1008.9 |
| 20260506061408 | 7 | 316 | 0.0 | 0.0 | 0.18 | 0.46 | 0.46 | 99 | 1008.9 |
| 20260506060906 | 7 | 342 | 0.0 | 1.6 | 0.00 | 0.43 | 0.43 | 99 | 1009.0 |
| 20260506060404 | 7 | 9 | 0.0 | 1.6 | 0.00 | 0.43 | 0.43 | 99 | 1008.9 |
| 20260506051336 | 7 | 327 | 1.6 | 1.6 | 0.30 | 0.25 | 0.25 | 99 | 1009.5 |
| 20260506050833 | 8 | 359 | 0.0 | 1.6 | 0.30 | 0.23 | 0.23 | 99 | 1009.2 |
| 20260506050331 | 8 | 6 | 1.6 | 3.2 | 0.13 | 0.20 | 0.20 | 99 | 1009.3 |
| 20260506044821 | 8 | 19 | 3.2 | 4.8 | 0.30 | 0.18 | 0.18 | 99 | 1009.2 |
| 20260506044319 | 8 | 14 | 1.6 | 1.6 | 0.30 | 0.15 | 0.15 | 99 | 1009.3 |
| 20260506043816 | 8 | 340 | 0.0 | 1.6 | 0.18 | 0.13 | 0.13 | 99 | 1009.3 |
| 20260506043313 | 8 | 348 | 1.6 | 1.6 | 0.13 | 0.10 | 0.10 | 99 | 1009.3 |
| 20260506042812 | 8 | 341 | 0.0 | 0.0 | 0.13 | 0.10 | 0.10 | 99 | 1009.2 |
| 20260506042310 | 8 | 350 | 0.0 | 1.6 | 0.18 | 0.08 | 0.08 | 99 | 1009.2 |
| 20260506041809 | 8 | 39 | 4.8 | 4.8 | 0.30 | 0.08 | 0.08 | 99 | 1009.3 |
| 20260506041305 | 8 | 21 | 1.6 | 3.2 | 0.13 | 0.05 | 0.05 | 99 | 1009.4 |
| 20260506040802 | 8 | 330 | 0.0 | 0.0 | 0.18 | 0.03 | 0.03 | 99 | 1009.4 |
| 20260506040259 | 8 | 348 | 0.0 | 0.0 | 0.18 | 0.03 | 0.03 | 99 | 1009.5 |
| 20260506035756 | 8 | 318 | 1.6 | 1.6 | 0.13 | 2.69 | 2.69 | 99 | 1009.5 |
| 20260506035253 | 8 | 6 | 0.0 | 1.6 | 0.30 | 2.69 | 2.69 | 99 | 1009.5 |
| 20260506034750 | 8 | 338 | 0.0 | 0.0 | 0.36 | 2.67 | 2.67 | 99 | 1009.8 |
| 20260506034247 | 8 | 338 | 0.0 | 0.0 | 0.18 | 2.64 | 2.64 | 99 | 1009.8 |
| 20260506033744 | 8 | 342 | 0.0 | 0.0 | 0.13 | 2.62 | 2.62 | 99 | 1009.8 |
| 20260506033241 | 8 | 340 | 0.0 | 0.0 | 0.30 | 2.62 | 2.62 | 99 | 1010.1 |
| 20260506032738 | 9 | 343 | 0.0 | 1.6 | 0.18 | 2.59 | 2.59 | 99 | 1009.8 |
| 20260506032235 | 9 | 315 | 0.0 | 0.0 | 0.13 | 2.57 | 2.57 | 99 | 1010.3 |
| 20260506031732 | 9 | 345 | 0.0 | 1.6 | 0.30 | 2.57 | 2.57 | 99 | 1010.1 |
| 20260506031229 | 9 | 330 | 0.0 | 0.0 | 0.18 | 2.54 | 2.54 | 99 | 1010.2 |
| 20260506030727 | 9 | 338 | 0.0 | 1.6 | 0.30 | 2.54 | 2.54 | 99 | 1010.1 |
| 20260506030225 | 9 | 336 | 0.0 | 1.6 | 0.13 | 2.51 | 2.51 | 99 | 1010.1 |
| 20260506025721 | 9 | 17 | 0.0 | 1.6 | 0.18 | 2.49 | 2.49 | 99 | 1010.4 |
| 20260506025218 | 9 | 341 | 0.0 | 0.0 | 0.18 | 2.49 | 2.49 | 99 | 1010.1 |
| 20260506024714 | 9 | 343 | 0.0 | 0.0 | 0.13 | 2.46 | 2.46 | 99 | 1010.2 |
| 20260506024211 | 9 | 344 | 1.6 | 1.6 | 0.30 | 2.46 | 2.46 | 99 | 1010.3 |
| 20260506023707 | 9 | 329 | 0.0 | 0.0 | 0.30 | 2.44 | 2.44 | 99 | 1010.3 |
| 20260506023205 | 10 | 339 | 0.0 | 0.0 | 0.30 | 2.41 | 2.41 | 99 | 1010.5 |
| 20260506022702 | 9 | 350 | 0.0 | 0.0 | 0.30 | 2.39 | 2.39 | 99 | 1010.5 |
| 20260506022159 | 9 | 350 | 0.0 | 0.0 | 0.30 | 2.36 | 2.36 | 99 | 1010.6 |
| 20260506021657 | 9 | 337 | 0.0 | 0.0 | 0.48 | 2.34 | 2.34 | 99 | 1010.4 |
| 20260506021154 | 9 | 336 | 0.0 | 0.0 | 0.48 | 2.31 | 2.31 | 99 | 1010.2 |
| 20260506020651 | 9 | 347 | 0.0 | 0.0 | 0.43 | 2.29 | 2.29 | 99 | 1010.2 |
| 20260506020149 | 9 | 35 | 0.0 | 0.0 | 0.43 | 2.24 | 2.24 | 99 | 1010.1 |
| 20260506015646 | 9 | 8 | 1.6 | 3.2 | 0.48 | 2.21 | 2.21 | 99 | 1009.7 |
| 20260506015144 | 9 | 337 | 0.0 | 0.0 | 0.30 | 2.16 | 2.16 | 99 | 1009.6 |
| 20260506014641 | 9 | 317 | 0.0 | 0.0 | 0.30 | 2.13 | 2.13 | 99 | 1009.6 |
| 20260506014136 | 9 | 328 | 1.6 | 1.6 | 0.48 | 2.11 | 2.11 | 99 | 1009.4 |
| 20260506013635 | 10 | 350 | 0.0 | 1.6 | 0.61 | 2.08 | 2.08 | 99 | 1009.4 |
| 20260506013131 | 10 | 345 | 0.0 | 1.6 | 0.79 | 2.03 | 2.03 | 99 | 1009.6 |
| 20260506012627 | 10 | 29 | 4.8 | 4.8 | 0.89 | 1.98 | 1.98 | 99 | 1009.5 |
| 20260506012124 | 10 | 32 | 3.2 | 4.8 | 0.89 | 1.91 | 1.91 | 99 | 1009.4 |
| 20260506011622 | 10 | 336 | 0.0 | 0.0 | 0.89 | 1.85 | 1.85 | 99 | 1009.4 |
| 20260506011118 | 10 | 319 | 0.0 | 0.0 | 0.89 | 1.75 | 1.75 | 99 | 1009.7 |
| 20260506010617 | 10 | 325 | 0.0 | 0.0 | 1.02 | 1.68 | 1.68 | 99 | 1009.3 |
| 20260506010108 | 10 | 335 | 0.0 | 0.0 | 1.07 | 1.60 | 1.60 | 99 | 1009.0 |
| 20260506005605 | 10 | 282 | 0.0 | 1.6 | 0.97 | 1.50 | 1.50 | 99 | 1009.4 |
| 20260506005102 | 10 | 22 | 3.2 | 3.2 | 0.79 | 1.42 | 1.42 | 99 | 1009.4 |
| 20260506004559 | 10 | 338 | 0.0 | 0.0 | 0.89 | 1.35 | 1.35 | 99 | 1009.1 |
| 20260506004055 | 10 | 334 | 0.0 | 0.0 | 0.71 | 1.30 | 1.30 | 99 | 1009.1 |
| 20260506003551 | 10 | 3 | 0.0 | 1.6 | 0.61 | 1.22 | 1.22 | 99 | 1008.9 |
| 20260506003048 | 10 | 2 | 0.0 | 0.0 | 0.48 | 1.17 | 1.17 | 99 | 1008.8 |
| 20260506002544 | 10 | 2 | 0.0 | 0.0 | 0.48 | 1.12 | 1.12 | 99 | 1008.9 |
| 20260506002040 | 10 | 3 | 0.0 | 0.0 | 0.61 | 1.09 | 1.09 | 99 | 1008.7 |
| 20260506001536 | 10 | 3 | 0.0 | 1.6 | 0.61 | 1.04 | 1.04 | 99 | 1008.9 |
| 20260506001034 | 10 | 339 | 1.6 | 1.6 | 0.48 | 0.99 | 0.99 | 99 | 1009.0 |
| 20260506000531 | 10 | 334 | 0.0 | 0.0 | 0.30 | 0.97 | 0.97 | 99 | 1009.0 |
| 20260506000028 | 10 | 339 | 0.0 | 0.0 | 0.30 | 0.91 | 0.91 | 99 | 1008.8 |
| 20260505235526 | 10 | 36 | 6.4 | 6.4 | 0.30 | 0.91 | 0.91 | 99 | 1008.9 |
| 20260505235023 | 11 | 10 | 0.0 | 1.6 | 0.00 | 0.86 | 0.86 | 99 | 1009.0 |
| 20260505234520 | 11 | 8 | 3.2 | 4.8 | 0.00 | 0.86 | 0.86 | 99 | 1009.0 |
| 20260505234017 | 11 | 21 | 0.0 | 0.0 | 0.00 | 0.86 | 0.86 | 99 | 1009.0 |
| 20260505233514 | 12 | 0 | 0.0 | 1.6 | 0.13 | 0.86 | 0.86 | 99 | 1009.1 |
| 20260505233011 | 13 | 346 | 0.0 | 0.0 | 0.13 | 0.86 | 0.86 | 99 | 1009.2 |
| 20260505232509 | 13 | 308 | 0.0 | 0.0 | 0.00 | 0.84 | 0.84 | 99 | 1009.1 |
| 20260505232006 | 13 | 308 | 0.0 | 0.0 | 0.18 | 0.84 | 0.84 | 99 | 1009.0 |
| 20260505231503 | 13 | 308 | 0.0 | 0.0 | 0.30 | 0.84 | 0.84 | 99 | 1009.1 |
| 20260505231002 | 13 | 308 | 0.0 | 0.0 | 0.30 | 0.81 | 0.81 | 99 | 1009.2 |
| 20260505230459 | 13 | 308 | 0.0 | 0.0 | 0.48 | 0.79 | 0.79 | 99 | 1009.1 |
| 20260505225955 | 13 | 313 | 0.0 | 0.0 | 0.48 | 0.76 | 0.76 | 99 | 1008.9 |
| 20260505225452 | 13 | 313 | 0.0 | 0.0 | 0.30 | 0.71 | 0.71 | 99 | 1008.9 |
| 20260505224948 | 13 | 312 | 0.0 | 0.0 | 0.43 | 0.69 | 0.69 | 99 | 1009.1 |
| 20260505224445 | 13 | 315 | 0.0 | 0.0 | 0.61 | 0.66 | 0.66 | 99 | 1009.2 |
| 20260505223942 | 13 | 346 | 0.0 | 1.6 | 1.07 | 0.61 | 0.61 | 99 | 1009.2 |
| 20260505223439 | 13 | 307 | 1.6 | 1.6 | 1.37 | 0.56 | 0.56 | 99 | 1009.3 |
| 20260505222936 | 13 | 318 | 0.0 | 1.6 | 1.55 | 0.46 | 0.46 | 99 | 1009.3 |
| 20260505222432 | 14 | 314 | 0.0 | 1.6 | 0.89 | 0.33 | 0.33 | 99 | 1009.4 |
| 20260505221928 | 14 | 312 | 0.0 | 0.0 | 0.13 | 0.20 | 0.20 | 99 | 1009.2 |
| 20260505221425 | 14 | 340 | 0.0 | 0.0 | 0.00 | 0.18 | 0.18 | 99 | 1009.1 |
| 20260505220922 | 14 | 341 | 0.0 | 0.0 | 0.18 | 0.18 | 0.18 | 98 | 1008.7 |
| 20260505220419 | 14 | 341 | 0.0 | 0.0 | 0.18 | 0.18 | 0.18 | 98 | 1008.5 |
| 20260505215917 | 14 | 341 | 0.0 | 0.0 | 0.00 | 0.15 | 0.15 | 98 | 1008.8 |
| 20260505215415 | 14 | 341 | 0.0 | 0.0 | 0.00 | 0.15 | 0.15 | 98 | 1008.6 |
| 20260505214913 | 14 | 341 | 0.0 | 0.0 | 0.00 | 0.15 | 0.15 | 98 | 1008.5 |
| 20260505214410 | 14 | 341 | 0.0 | 0.0 | 0.00 | 0.15 | 0.15 | 98 | 1008.8 |
| 20260505213907 | 14 | 341 | 0.0 | 0.0 | 0.00 | 0.15 | 0.15 | 98 | 1008.9 |
| 20260505213405 | 14 | 342 | 0.0 | 0.0 | 0.00 | 0.15 | 0.15 | 98 | 1008.8 |
| 20260505212901 | 14 | 342 | 0.0 | 0.0 | 0.00 | 0.15 | 0.15 | 98 | 1008.9 |
| 20260505212358 | 14 | 342 | 0.0 | 0.0 | 0.00 | 0.15 | 0.15 | 98 | 1008.9 |
| 20260505211854 | 14 | 342 | 0.0 | 0.0 | 0.00 | 0.15 | 0.15 | 97 | 1008.6 |
| 20260505211352 | 14 | 341 | 0.0 | 0.0 | 0.00 | 0.15 | 0.15 | 97 | 1008.8 |
| 20260505210848 | 14 | 341 | 0.0 | 0.0 | 0.00 | 0.15 | 0.15 | 97 | 1009.0 |
| 20260505210345 | 14 | 309 | 0.0 | 0.0 | 0.00 | 0.15 | 0.15 | 97 | 1009.0 |
| 20260505205842 | 14 | 309 | 0.0 | 0.0 | 0.00 | 0.15 | 0.15 | 97 | 1008.9 |
| 20260505205340 | 14 | 330 | 0.0 | 0.0 | 0.00 | 0.15 | 0.15 | 97 | 1008.9 |
| 20260505204837 | 15 | 344 | 0.0 | 0.0 | 0.00 | 0.15 | 0.15 | 97 | 1008.9 |
| 20260505204335 | 15 | 313 | 0.0 | 0.0 | 0.48 | 0.15 | 0.15 | 97 | 1009.1 |
| 20260505203832 | 15 | 316 | 0.0 | 1.6 | 0.48 | 0.15 | 0.15 | 97 | 1009.2 |
| 20260505203328 | 15 | 16 | 0.0 | 1.6 | 0.00 | 0.08 | 0.08 | 96 | 1009.3 |
| 20260505202824 | 15 | 335 | 0.0 | 0.0 | 0.00 | 0.08 | 0.08 | 96 | 1009.1 |
| 20260505202320 | 15 | 335 | 0.0 | 0.0 | 0.00 | 0.08 | 0.08 | 96 | 1009.1 |
| 20260505201817 | 15 | 336 | 0.0 | 0.0 | 0.00 | 0.08 | 0.08 | 95 | 1008.9 |
| 20260505201315 | 15 | 336 | 0.0 | 0.0 | 0.13 | 0.08 | 0.08 | 95 | 1009.0 |
| 20260505200813 | 15 | 336 | 0.0 | 0.0 | 0.30 | 0.08 | 0.08 | 93 | 1009.1 |
| 20260505200310 | 15 | 319 | 0.0 | 0.0 | 0.30 | 0.05 | 0.05 | 92 | 1008.9 |
| 20260505195804 | 16 | 319 | 0.0 | 0.0 | 0.13 | 0.03 | 0.03 | 90 | 1009.1 |
| 20260505195305 | 16 | 299 | 1.6 | 1.6 | 0.00 | 0.00 | 0.00 | 86 | 1009.2 |
| 20260505194759 | 16 | 306 | 0.0 | 0.0 | 0.00 | 0.00 | 0.00 | 82 | 1008.8 |
| 20260505194256 | 17 | 318 | 0.0 | 0.0 | 0.00 | 0.00 | 0.00 | 82 | 1009.0 |
| 20260505193751 | 17 | 292 | 3.2 | 3.2 | 0.00 | 0.00 | 0.00 | 80 | 1008.9 |
| 20260505193249 | 17 | 316 | 0.0 | 1.6 | 0.00 | 0.00 | 0.00 | 79 | 1008.9 |
| 20260505192747 | 17 | 303 | 1.6 | 1.6 | 0.00 | 0.00 | 0.00 | 78 | 1008.9 |
| 20260505192245 | 18 | 297 | 1.6 | 1.6 | 0.00 | 0.00 | 0.00 | 76 | 1009.0 |
| 20260505191743 | 18 | 27 | 0.0 | 0.0 | 0.00 | 0.00 | 0.00 | 75 | 1009.0 |
| 20260505191241 | 18 | 313 | 1.6 | 1.6 | 0.00 | 0.00 | 0.00 | 73 | 1008.8 |
| 20260505190737 | 18 | 283 | 1.6 | 1.6 | 0.00 | 0.00 | 0.00 | 72 | 1009.0 |
| 20260505190232 | 18 | 290 | 1.6 | 3.2 | 0.00 | 0.00 | 0.00 | 72 | 1009.1 |
| 20260505185728 | 18 | 310 | 0.0 | 1.6 | 0.00 | 0.00 | 0.00 | 72 | 1008.9 |
| 20260505185225 | 18 | 316 | 0.0 | 0.0 | 0.00 | 0.00 | 0.00 | 73 | 1009.0 |
| 20260505184720 | 18 | 260 | 1.6 | 3.2 | 0.00 | 0.00 | 0.00 | 71 | 1009.0 |
| 20260505184219 | 18 | 309 | 0.0 | 1.6 | 0.00 | 0.00 | 0.00 | 72 | 1009.1 |
| 20260505183715 | 18 | 294 | 1.6 | 1.6 | 0.00 | 0.00 | 0.00 | 73 | 1009.1 |
| 20260505183212 | 18 | 275 | 0.0 | 1.6 | 0.00 | 0.00 | 0.00 | 72 | 1009.3 |
| 20260505182708 | 17 | 264 | 1.6 | 3.2 | 0.00 | 0.00 | 0.00 | 73 | 1009.4 |
| 20260505182206 | 17 | 241 | 1.6 | 1.6 | 0.00 | 0.00 | 0.00 | 74 | 1009.6 |
| 20260505181702 | 17 | 318 | 0.0 | 0.0 | 0.00 | 0.00 | 0.00 | 75 | 1009.4 |
| 20260505181200 | 17 | 298 | 1.6 | 1.6 | 0.00 | 0.00 | 0.00 | 74 | 1009.6 |
| 20260505180656 | 17 | 201 | 3.2 | 3.2 | 0.00 | 0.00 | 0.00 | 74 | 1009.5 |